sat.trackr.live / text

‹ back to catalog

STARLINK-37418

NORAD 68775 · 2026-086K

PAYLOAD ACTIVE UNKNOWN

§ Identity

Operator
Country
US
Launch date
2026-04-19
Launch site
AFWTR
Launch vehicle
Mass (kg)
RCS (m²)

Purposes: comms

External: N2YO · Heavens-Above · Gunter

§ Orbital elements

Epoch: 2026-05-25T04:00:03.998880Z

Period
92.29 min
Inclination
97.2846°
Eccentricity
0.0001436
Mean motion
15.60279778 rev/d
Perigee alt
385.9 km
Apogee alt
387.8 km
Semi-major
6,765.0 km
B*
-2.6542e-2
RAAN
182.0015°
Arg perigee
93.5744°
Mean anomaly
198.2684°
Rev number
607

§ Raw data

STARLINK-374181 68775U 26086K   26145.16671295 -.01912787  00000+0 -26542-1 0  99962 68775  97.2846 182.0015 0001436  93.5744 198.2684 15.60279778  6077

JSON: /api/v1/satellites/68775 · /tle

For live sub-satellite position, see the globe view (requires WebGL).

§ Visibility from observer

Set your observer location to see the next 7 days of passes ≥ 10°. The values pass through the URL so the page stays shareable.

No JS? Fill the form by hand. The geolocation button needs JavaScript.